KE9LZ-9 Weather Reports


time (UTC)temp
F
wind
direction
speed
knots
gust
knots
rain 1hr
in
rain 24hr
in
rain mn
in
humidity
%
barometer
mb
20260503221004 67 282 2.6 7.8 0.01 0.01 0.01 41 1000.7
20260503220004 69 288 2.6 13.0 0.01 0.01 0.01 41 1000.7
20260503215004 67 337 4.3 8.7 0.01 0.01 0.01 44 1000.9
20260503214004 64 310 2.6 6.1 0.01 0.01 0.01 51 1001.0
20260503212003 64 237 4.3 10.4 0.00 0.00 0.00 43 1001.3
20260503211004 64 310 4.3 7.0 0.00 0.00 0.00 48 1001.4
20260503210005 64 294 1.7 11.3 0.00 0.00 0.00 51 1001.3
20260503205004 61 262 4.3 17.4 0.00 0.00 0.00 56 1001.7
20260503204005 67 286 6.1 13.0 0.00 0.00 0.00 38 1001.0
20260503203004 68 267 4.3 14.8 0.00 0.00 0.00 37 1001.1
20260503202003 68 248 4.3 13.0 0.00 0.00 0.00 38 1001.1
20260503201003 68 261 7.0 13.0 0.00 0.00 0.00 38 1001.1
20260503200003 68 280 2.6 13.9 0.00 0.00 0.00 38 1001.3
20260503195003 68 285 4.3 13.0 0.00 0.00 0.00 38 1001.5
20260503194003 70 247 3.5 13.0 0.00 0.00 0.00 37 1001.8
20260503192004 69 246 3.5 15.6 0.00 0.00 0.00 37 1001.9
20260503191004 69 305 7.0 13.0 0.00 0.00 0.00 36 1002.1
20260503185004 70 270 5.2 15.6 0.00 0.00 0.00 37 1002.3
20260503184003 69 288 2.6 13.0 0.00 0.00 0.00 38 1002.4
20260503182005 67 273 7.0 19.1 0.00 0.00 0.00 38 1002.9
20260503181004 67 302 5.2 13.0 0.00 0.00 0.00 39 1002.8
20260503180004 67 295 6.1 14.8 0.00 0.00 0.00 40 1002.9
20260503175004 67 286 4.3 11.3 0.00 0.00 0.00 40 1003.2
20260503174004 67 224 4.3 8.7 0.00 0.00 0.00 39 1003.2
20260503173003 65 221 2.6 13.9 0.00 0.00 0.00 41 1003.4
20260503172004 66 288 5.2 12.2 0.00 0.00 0.00 41 1003.7
20260503171003 66 241 5.2 13.0 0.00 0.00 0.00 40 1003.9
20260503151004 56 241 3.5 13.9 0.00 0.00 0.00 56 1005.5
20260503131004 49 243 1.7 5.2 0.00 0.00 0.00 76 1006.9
20260503081003 43 332 1.7 2.6 0.00 0.00 0.00 68 1008.3
20260503055004 35 67 0.0 1.7 0.00 0.00 0.00 90 1009.7
20260503054003 34 343 0.9 1.7 0.00 0.00 0.00 90 1009.7
20260503053004 34 5 0.9 1.7 0.00 0.00 0.00 91 1010.0
20260503052004 34 0 0.9 0.9 0.00 0.00 0.00 90 1009.9
20260503051004 34 22 0.0 1.7 0.00 0.00 0.00 90 1010.0
20260503050004 34 29 0.9 1.7 0.00 0.00 0.00 89 1009.9
20260503045004 35 55 0.0 2.6 0.00 0.00 0.00 89 1010.2
20260503044004 35 155 0.0 1.7 0.00 0.00 0.00 88 1010.2
20260503043004 35 38 1.7 1.7 0.00 0.00 0.00 88 1010.5
20260503042004 36 358 0.9 4.3 0.00 0.00 0.00 87 1010.4
20260503041003 36 67 0.0 1.7 0.00 0.00 0.00 86 1010.4
20260503040003 37 53 1.7 2.6 0.00 0.00 0.00 85 1010.4
20260503035004 38 302 0.9 0.9 0.00 0.00 0.00 83 1010.5
20260503034004 38 357 0.0 0.9 0.00 0.00 0.00 83 1010.4
20260503033004 39 37 0.0 0.9 0.00 0.00 0.00 81 1010.7
20260503032005 40 52 0.0 1.7 0.00 0.00 0.00 79 1010.7
20260503030003 41 12 0.0 1.7 0.00 0.00 0.00 76 1010.9
20260503025003 42 63 0.9 1.7 0.00 0.00 0.00 75 1011.0
20260503023004 43 38 0.9 1.7 0.00 0.00 0.00 72 1011.1
20260503022003 43 92 0.9 2.6 0.00 0.00 0.00 71 1011.1
20260503021004 44 52 0.9 2.6 0.00 0.00 0.00 70 1011.3
20260503014004 46 10 0.9 4.3 0.00 0.00 0.00 66 1011.2
20260503013003 46 34 0.9 4.3 0.00 0.00 0.00 64 1011.2
20260503012004 47 85 2.6 5.2 0.00 0.00 0.00 63 1011.1
20260503011004 48 44 0.0 4.3 0.00 0.00 0.00 62 1011.3
20260503010003 49 42 1.7 4.3 0.00 0.00 0.00 58 1011.3
20260503005004 50 90 1.7 6.1 0.00 0.00 0.00 55 1011.2
20260503003004 53 38 1.7 4.3 0.00 0.00 0.00 46 1011.3
20260503002004 56 70 0.9 2.6 0.00 0.00 0.00 30 1011.0
20260503001003 57 318 1.7 6.1 0.00 0.00 0.00 28 1011.0
20260503000004 58 341 2.6 7.8 0.00 0.00 0.00 28 1011.2
20260502235004 59 325 4.3 6.1 0.00 0.00 0.00 27 1011.1
20260502234004 59 323 0.9 6.1 0.00 0.00 0.00 28 1011.1
20260502233004 59 287 1.7 5.2 0.00 0.00 0.00 27 1011.2
20260502232003 60 265 2.6 7.0 0.00 0.00 0.00 25 1011.3
20260502231004 61 351 2.6 7.8 0.00 0.00 0.00 26 1011.4
20260502224003 59 268 0.9 6.1 0.00 0.00 0.00 27 1011.7
20260502223004 58 0 1.7 7.0 0.00 0.00 0.00 28 1011.7
20260502222003 60 295 3.5 10.4 0.00 0.00 0.00 27 1011.8